Lapse_Rate
6.6 6.6 6.6 6.5 6.4 6.2 5.9 5.9 5.8 5.8 5.8 5.8 6.1 6.1 5.9 5.9 5.9 5.7 5.3 5.7 5.7 5.6 5.6 5.6 5.7 5.6 5.6 5.8 6.0 6.1 6.2 6.2 5.9 5.5 5.3 5.2 5.5 5.8 5.9 5.2 5.6 6.0 6.3
6.6 6.4 6.2 6.2 6.1 6.0 5.9 5.8 6.0 6.2 6.2 6.1 5.8 5.6 5.9 5.8 5.5 5.7 5.6 5.0 5.4 5.5 5.6 5.5 5.4 5.6 5.6 5.7 5.8 5.9 6.2 6.2 5.9 5.7 5.6 5.4 5.3 5.8 5.9 5.5 5.4 6.1 6.7
6.2 6.2 6.2 6.1 5.9 5.8 5.7 5.6 5.6 5.6 5.6 5.7 5.9 6.1 6.0 6.2 6.3 6.0 5.4 4.9 4.9 5.2 4.9 5.0 5.6 5.3 5.3 5.3 5.5 5.7 5.9 6.2 6.2 5.9 5.7 5.7 5.3 5.6 5.9 5.8 5.8 5.9 6.5
6.1 6.2 5.9 5.8 5.6 5.5 5.5 5.5 5.6 5.6 5.6 5.4 5.3 5.3 5.0 5.1 5.6 5.8 6.0 6.4 5.5 4.9 5.1 5.0 4.8 5.2 5.5 5.4 5.3 5.3 5.7 5.8 6.3 6.3 6.2 5.8 5.8 6.0 5.8 5.6 6.0 5.8 5.9
5.9 5.9 5.6 5.4 5.4 5.3 5.3 5.4 5.4 5.4 5.3 5.1 4.9 4.7 4.7 4.4 4.4 4.8 4.9 5.5 6.0 5.5 4.5 5.4 5.0 5.0 5.1 5.3 5.3 5.2 5.1 5.4 5.8 6.3 6.4 6.1 5.9 5.6 5.7 5.9 5.2 5.8 5.8
6.1 5.7 5.5 5.4 5.1 4.9 5.3 5.3 5.1 4.9 5.0 4.9 4.9 5.0 5.1 5.3 5.3 4.8 4.2 4.5 4.5 4.8 5.4 4.2 4.5 5.1 4.8 4.8 5.3 5.3 5.3 5.2 5.2 5.6 5.9 6.1 6.1 5.9 5.8 5.8 5.4 5.7 6.0
6.2 5.5 5.3 5.2 5.3 5.6 5.5 5.3 5.1 5.1 5.2 5.3 5.2 5.1 5.0 5.1 5.0 5.4 5.2 4.2 4.3 4.8 4.3 5.1 5.3 4.5 5.2 4.9 4.5 5.1 5.6 5.4 5.3 5.2 5.6 5.7 5.9 6.1 5.9 5.8 5.6 6.0 6.2
5.6 6.1 6.1 5.7 5.5 6.5 6.4 6.1 6.0 5.8 5.7 5.8 5.7 5.6 5.4 5.4 5.6 5.6 5.5 5.3 5.0 5.1 5.0 4.5 4.3 4.3 4.4 4.8 5.0 5.0 4.8 5.3 5.4 5.4 5.4 5.6 5.7 5.7 5.9 5.9 6.0 5.7 5.8
5.8 6.3 6.0 6.0 5.9 6.1 6.0 6.0 6.0 6.0 5.8 5.9 6.1 6.0 5.7 5.5 5.8 6.2 6.4 6.4 6.1 6.0 6.2 6.2 5.6 4.6 4.3 4.5 4.3 5.6 5.3 5.1 5.3 5.5 5.3 5.4 5.7 5.7 5.7 5.7 5.8 5.9 5.8
6.0 6.1 5.7 5.5 5.5 5.7 5.8 5.9 6.0 6.0 6.0 6.1 6.3 6.6 6.7 6.6 6.3 5.8 6.4 6.6 6.7 6.6 6.3 6.4 6.7 6.4 5.8 4.6 4.2 4.3 5.1 5.7 5.4 5.2 5.5 5.4 5.3 5.7 5.8 5.7 5.6 5.8 5.9
5.9 5.4 5.5 5.5 5.7 5.9 6.1 6.2 6.3 6.6 6.9 6.8 6.7 6.6 6.5 6.1 5.8 5.6 5.6 5.9 6.2 6.3 7.0 6.7 6.9 6.9 6.7 6.2 5.3 5.0 4.8 5.4 5.7 5.6 5.4 5.4 5.4 5.5 5.7 5.8 5.7 5.7 5.9
5.6 5.8 5.9 5.9 6.2 6.3 6.2 6.0 6.4 6.6 6.4 6.2 5.6 5.3 5.3 5.4 5.3 5.6 5.8 5.7 5.2 5.3 5.3 6.6 6.4 6.8 6.9 6.8 6.0 5.4 5.6 5.4 5.7 6.0 5.9 5.5 5.3 5.5 5.7 5.9 5.8 5.7 5.6
5.8 6.0 6.2 6.3 6.4 6.4 6.2 6.1 6.0 5.4 5.5 5.5 5.3 5.4 5.5 5.4 5.5 5.5 5.5 5.7 5.4 5.5 5.5 5.4 6.3 6.1 5.8 6.3 6.1 6.0 5.2 5.5 6.5 6.0 6.1 5.8 5.6 5.5 5.4 5.7 5.9 5.8 5.6
6.2 6.2 6.0 6.0 6.1 6.4 6.0 5.9 5.7 5.4 5.4 5.5 5.9 5.9 6.0 6.4 6.5 6.7 6.7 6.8 6.9 6.7 6.8 6.8 6.8 6.7 6.7 6.1 6.4 6.7 6.3 5.9 6.3 6.3 6.2 6.9 6.0 5.9 5.7 5.5 5.7 5.8 5.7
6.4 6.3 6.5 6.4 6.1 6.2 6.0 5.9 5.5 5.3 5.5 6.2 6.6 6.9 7.0 7.1 7.2 7.2 7.5 7.9 7.6 8.0 8.0 7.7 7.6 7.5 7.4 7.2 7.0 6.6 6.3 6.0 5.5 6.1 6.2 6.4 6.2 6.2 6.0 5.8 5.6 5.6 5.6
6.6 6.4 6.3 6.3 6.1 6.1 5.9 5.8 6.0 6.3 6.7 7.1 7.2 7.3 7.2 7.1 7.2 7.2 7.4 7.4 7.4 7.2 7.8 7.4 7.3 6.9 7.3 6.5 6.6 6.9 6.7 6.2 6.0 6.1 6.2 6.1 5.7 6.1 6.0 5.8 5.6 5.6 5.6
6.4 6.4 6.3 6.2 6.2 6.2 6.2 6.3 6.6 6.9 7.0 7.0 6.9 6.9 7.1 7.1 7.2 7.1 6.9 6.9 6.9 6.8 6.8 7.4 6.9 6.8 6.9 6.5 6.4 6.7 6.8 6.4 6.1 5.9 5.9 6.2 5.9 5.9 6.0 6.0 5.9 5.6 5.5
6.6 6.5 6.4 6.3 6.4 6.4 6.6 6.7 7.1 6.9 6.8 6.8 6.7 6.5 6.4 6.4 6.7 6.8 6.8 7.0 6.8 6.5 6.3 6.2 6.3 6.5 6.4 6.6 6.5 6.5 6.6 6.5 6.0 5.9 6.0 5.8 5.6 6.1 6.2 6.3 6.2 6.1 6.0
6.6 6.6 6.5 6.4 6.5 6.5 6.6 6.2 6.0 6.0 6.2 6.2 6.0 6.0 6.0 6.0 6.0 6.0 6.1 6.1 6.2 6.1 6.1 5.9 6.0 6.1 6.3 6.7 6.5 6.4 6.5 6.5 6.4 6.3 6.0 5.7 5.6 5.5 6.2 6.0 5.9 5.7 5.8
6.6 6.4 6.3 6.2 6.1 6.0 5.8 5.8 6.0 6.3 6.3 6.1 6.3 6.3 6.1 5.9 5.8 5.8 5.8 5.9 5.6 5.6 5.8 5.9 6.0 6.1 6.2 6.2 6.3 6.3 6.3 6.1 6.1 5.9 5.9 5.8 5.7 5.6 5.5 5.9 6.4 6.1 5.8
6.1 6.2 6.2 6.2 6.0 5.9 5.8 5.9 6.3 6.5 6.3 6.3 6.7 6.8 6.9 6.8 6.5 6.1 5.8 5.7 5.5 5.6 5.6 5.5 5.7 5.9 6.0 6.1 5.7 5.6 5.5 5.6 5.6 5.6 5.5 5.7 5.5 5.4 5.7 5.6 5.5 5.8 5.9
6.3 6.4 6.4 6.2 6.0 6.0 6.0 6.1 6.6 6.8 6.8 6.7 6.7 6.8 6.9 7.0 7.1 6.5 6.1 6.0 5.4 5.4 5.7 5.8 5.9 5.9 5.9 5.9 5.9 5.9 5.8 5.8 5.7 5.8 5.8 5.8 5.6 5.8 5.6 5.6 5.6 5.4 5.4
7.0 6.7 6.3 6.2 6.3 6.2 6.0 6.2 6.7 6.6 6.5 6.5 6.4 6.5 6.6 6.7 6.8 6.7 6.3 6.0 5.9 5.9 5.6 5.8 5.7 5.7 5.7 5.7 5.5 5.3 5.2 5.3 5.3 5.4 5.5 5.3 5.4 5.5 5.4 5.3 5.0 5.3 5.7
7.0 6.5 6.5 6.4 6.3 6.3 6.5 6.5 6.6 6.6 6.4 6.7 6.8 6.9 6.9 6.8 6.8 6.7 6.6 6.7 6.4 5.8 5.6 5.4 5.5 5.5 5.4 5.5 5.4 5.4 5.4 5.3 5.3 5.5 5.5 5.3 5.7 5.7 5.5 5.3 5.3 5.1 4.8
6.7 6.5 6.5 6.4 6.3 6.6 6.7 6.7 6.7 6.6 6.6 6.8 6.9 7.0 7.1 7.2 7.0 6.9 6.7 6.7 6.5 5.9 5.3 5.0 5.1 5.3 5.3 5.3 5.4 5.3 5.6 5.4 5.6 5.8 5.6 5.3 5.6 5.5 5.4 5.5 5.4 5.3 5.2
6.6 6.6 6.6 6.6 6.8 6.8 6.9 6.6 6.7 6.7 6.7 6.8 7.0 6.9 6.8 6.7 6.9 6.6 6.4 6.3 6.2 5.6 5.2 5.1 5.0 5.0 5.1 5.2 5.2 5.4 5.6 5.7 5.7 5.8 5.9 5.3 5.2 5.1 5.4 5.5 5.4 5.4 5.4
Wind_Speed
3 5 3 5 6 7 6 5 7 6 6 6 10 8 8 11 12 12 8 9 8 7 9 13 14 13 11 9 7 5 5 7 9 11 10 13 17 18 21 23 24 24 24
2 3 5 5 7 8 6 6 7 5 5 7 6 10 11 12 12 12 14 12 12 13 11 12 12 12 11 10 8 7 6 5 7 10 14 16 16 18 18 22 24 24 24
5 5 4 5 8 9 7 10 9 8 4 6 7 7 10 12 13 15 15 10 16 16 15 14 14 13 12 11 8 7 6 6 6 7 8 14 17 12 15 21 23 24 25
2 3 4 4 11 11 9 4 4 5 5 5 4 5 5 9 13 15 17 17 12 15 19 19 17 16 16 15 13 10 8 8 8 9 7 8 8 9 9 16 24 26 26
9 11 8 10 14 9 6 5 6 5 4 4 6 6 5 5 6 11 11 15 19 17 16 22 25 22 19 17 16 15 12 10 7 6 9 11 14 15 16 16 15 20 24
12 13 11 11 13 5 5 5 5 5 5 6 9 9 7 8 7 6 8 13 16 20 20 20 21 19 22 19 18 17 16 14 12 11 9 6 10 10 18 19 17 13 25
16 14 11 10 11 6 6 7 5 7 7 5 7 8 8 8 7 8 8 9 10 16 23 23 21 20 20 25 22 22 19 17 15 13 11 11 6 8 9 8 13 19 18
15 15 10 5 6 5 7 6 6 6 6 6 7 8 11 10 7 7 9 11 14 11 13 20 19 22 21 19 21 23 21 19 16 14 13 12 10 10 12 10 8 8 13
13 13 10 7 5 4 5 6 6 7 6 6 7 5 9 11 10 7 9 10 9 8 1 9 20 21 18 20 21 21 21 18 16 15 14 13 12 11 13 12 10 9 8
11 14 14 11 7 5 6 5 7 5 5 6 4 8 9 7 4 9 4 8 10 9 9 4 6 16 15 15 17 16 21 17 14 13 14 15 14 13 12 12 11 10 9
13 15 14 12 6 5 6 7 5 6 4 4 3 4 4 8 8 4 9 7 9 10 10 7 7 3 16 17 7 12 17 13 12 9 12 15 16 15 13 14 14 12 11
5 9 12 10 9 6 6 5 5 7 5 4 4 5 3 2 6 7 8 9 7 6 9 7 6 5 11 14 16 3 17 15 11 5 4 10 14 16 15 14 15 15 14
4 6 7 6 4 7 6 6 4 3 2 2 2 1 3 4 3 6 7 9 8 7 4 4 3 8 9 6 13 9 12 13 11 6 3 4 2 3 7 10 13 15 16
4 7 11 13 11 11 9 10 5 4 5 5 5 4 4 4 3 3 4 4 7 3 5 7 2 3 10 12 10 6 12 15 14 11 7 3 3 0 3 3 2 3 4
8 10 10 9 11 9 8 7 5 6 5 6 7 6 5 5 4 4 4 5 5 5 6 5 2 5 4 14 15 15 13 19 21 15 10 6 4 4 3 4 3 3 4
8 8 8 9 10 10 10 10 7 7 7 5 6 6 8 7 9 6 6 6 6 7 9 4 8 6 8 9 14 17 18 10 14 15 13 10 10 9 9 8 5 4 5
7 7 8 8 8 8 5 3 8 9 7 8 7 8 8 10 8 8 8 8 7 4 7 6 5 5 4 4 6 13 11 7 16 23 21 20 19 17 15 13 11 10 10
6 7 6 7 7 7 6 8 9 9 9 8 9 10 10 7 9 6 6 8 6 6 5 10 4 5 5 6 5 5 4 9 10 20 28 27 26 24 20 19 17 15 14
6 6 7 7 7 7 7 7 7 7 9 9 11 13 12 9 7 5 6 5 6 6 8 7 6 4 4 4 5 5 5 4 9 10 10 21 24 23 21 21 19 18 18
6 6 6 7 7 8 10 7 9 9 8 9 10 14 14 13 11 9 8 5 5 5 8 9 8 7 5 5 4 5 6 3 3 8 11 8 17 23 26 26 25 23 23
6 6 7 7 7 7 6 6 7 8 9 10 10 12 13 17 22 10 6 6 5 4 4 7 8 8 7 5 5 4 4 3 3 2 2 3 3 3 12 21 22 25 23
5 6 6 6 6 6 8 9 9 8 10 11 12 13 13 18 16 13 9 10 9 7 9 7 7 8 9 8 7 5 4 3 3 4 3 3 4 4 4 6 9 4 4
6 6 6 5 5 5 7 11 9 6 8 10 13 12 13 11 15 11 10 14 7 8 6 7 9 10 10 10 10 8 5 3 3 4 3 3 2 3 4 9 3 6 3
6 6 5 5 5 6 14 13 8 6 7 9 11 13 13 13 10 12 8 7 8 7 6 7 9 11 10 10 8 7 6 6 4 4 4 5 3 4 2 9 12 15 8
5 4 5 6 7 7 12 11 9 5 7 9 11 12 13 12 17 20 11 8 8 8 12 18 19 19 20 21 18 8 7 7 6 4 3 3 3 3 3 4 11 16 20
4 4 4 5 8 8 9 13 10 4 7 8 10 12 18 15 9 12 7 7 7 8 7 6 7 8 12 11 17 9 8 8 8 7 7 6 3 1 3 4 4 11 11
Wind_Direction
65 7 342 327 326 304 305 340 329 310 328 281 242 233 270 274 264 279 267 206 197 219 255 264 255 247 237 231 225 221 210 214 216 218 215 245 246 235 229 226 223 222 219
29 337 348 324 315 318 338 315 270 259 251 246 258 238 232 250 278 276 261 215 210 208 215 240 251 250 246 241 235 229 226 209 203 212 215 218 234 235 231 232 224 221 219
351 341 317 293 284 302 316 292 278 269 258 242 236 236 223 229 227 247 265 252 214 224 218 219 231 228 220 222 222 220 225 229 236 223 213 215 221 221 237 232 228 222 219
247 284 304 310 306 312 297 289 291 281 277 271 268 255 238 223 219 216 227 232 224 210 218 216 219 218 217 210 204 207 215 228 235 240 230 230 245 230 243 243 230 227 224
31 13 335 313 316 308 291 287 287 267 269 294 291 283 277 252 238 233 218 221 221 229 199 214 211 210 214 214 212 209 210 213 219 235 241 233 220 218 223 232 239 235 225
15 351 325 308 304 298 297 304 315 318 303 291 289 289 289 275 264 244 237 227 218 220 225 206 209 213 211 212 222 227 222 219 222 225 228 258 229 218 226 232 228 241 245
12 351 320 327 331 322 318 319 321 308 301 301 304 294 294 292 288 269 258 238 228 220 215 217 190 203 212 214 214 224 228 225 225 229 233 228 244 203 239 238 238 225 242
1 329 302 297 330 344 332 325 329 325 320 323 314 308 304 296 286 286 282 268 251 241 227 214 204 202 206 202 211 215 219 222 216 219 232 242 233 217 212 239 236 241 249
302 299 332 346 344 351 332 317 313 324 329 322 316 312 312 300 309 304 300 308 310 288 324 293 238 228 207 187 204 209 203 216 215 215 218 228 236 243 208 219 233 239 240
329 350 349 353 342 344 315 309 330 322 332 318 344 12 5 3 337 313 333 329 325 326 296 281 289 297 219 173 163 193 204 203 226 227 226 224 225 235 233 227 233 240 242
360 356 354 342 350 328 315 299 313 351 15 9 358 360 355 352 357 321 316 344 335 344 357 3 336 350 339 339 330 172 181 198 218 241 243 228 224 222 234 238 238 242 249
357 339 343 334 328 331 314 350 45 49 37 34 17 11 8 328 320 307 307 309 303 302 332 1 342 349 347 327 323 231 189 188 190 212 286 265 237 231 232 234 239 239 245
338 331 334 325 312 315 7 9 3 108 78 65 27 331 299 286 256 287 293 292 296 309 290 299 350 327 307 291 306 221 208 185 174 194 243 286 298 275 248 238 237 240 244
328 322 352 345 15 28 17 19 2 353 5 343 309 282 264 259 262 237 239 271 299 285 284 262 306 294 316 299 279 210 203 189 186 187 197 230 235 342 325 310 257 234 233
354 358 360 354 350 6 7 9 342 323 334 305 286 271 270 261 246 244 237 230 253 291 296 313 296 254 237 301 286 276 202 210 197 190 188 193 250 291 296 302 297 272 262
347 341 359 356 342 349 348 334 317 307 311 300 291 308 299 297 305 289 258 235 240 252 277 285 287 266 261 219 253 241 258 192 192 189 195 203 226 247 272 278 286 311 317
352 336 324 308 310 305 301 292 275 289 299 301 297 286 291 292 291 300 299 302 288 249 265 285 275 303 320 306 259 240 280 236 195 201 205 219 232 229 233 243 260 280 293
304 313 302 301 284 281 262 264 266 271 268 277 306 302 294 283 285 301 299 288 286 293 284 288 289 298 294 298 302 302 288 263 222 217 218 224 229 229 231 235 250 265 280
300 317 333 319 321 308 301 299 308 341 2 345 333 329 317 298 289 277 280 290 308 320 328 311 298 298 306 314 309 312 296 303 304 283 225 226 232 235 239 242 244 251 266
325 322 320 320 317 322 322 12 353 346 339 334 329 320 314 308 294 288 315 315 300 322 315 312 310 307 305 303 291 287 289 287 277 296 295 279 224 226 227 234 241 246 253
318 332 326 320 318 315 35 18 1 344 331 321 314 305 301 305 308 283 265 265 288 292 298 293 295 304 299 299 294 334 320 330 322 353 343 342 344 260 243 232 231 245 246
328 313 313 314 322 347 72 36 19 338 328 322 309 301 295 296 297 317 299 255 234 236 256 263 273 281 290 301 319 324 330 339 323 330 10 316 336 316 325 298 218 135 341
305 304 302 313 357 11 51 18 349 324 311 319 309 307 306 307 318 311 341 343 325 280 284 280 274 270 273 279 290 297 295 289 271 294 337 288 318 281 267 287 243 174 273
301 300 332 3 356 343 346 339 336 310 314 310 310 309 307 310 314 314 305 290 296 292 257 239 237 254 261 270 274 290 299 297 290 276 265 270 261 265 276 274 275 286 265
304 14 8 1 351 331 316 344 304 314 306 310 304 300 298 303 302 304 299 287 279 277 278 271 276 278 278 271 265 268 265 271 279 273 266 230 248 251 244 261 262 263 264
18 56 17 346 325 319 340 340 342 321 311 315 313 308 305 311 10 356 337 302 287 280 289 303 300 300 293 265 261 247 245 243 253 268 248 259 265 270 282 230 233 249 253